User: anonymous   Login
Location: Byszew
(52.1813°N, 19.2693°E)
Time: 16:57:13
(UTC+00:00)
Language:

Cosmos 1689 Rocket - Orbit

View from above orbital plane
View from above orbital plane
View from above satellite
View from above satellite

Ground track
Ground track

The orbit data is extracted from the following two-line orbital elements,

1 16111U 85090B   21129.52532652  .00012526  00000-0  96687-4 0  9993
2 16111  97.4792 329.8059 0010405 127.3136 232.9077 15.72021863966106
Epoch (UTC): 09 May 2021 12:36:28
Eccentricity: 0.0010405
inclination: 97.4792°
perigee height: 346 km
apogee height: 360 km
right ascension of ascending node: 329.8059°
argument of perigee: 127.3136°
revolutions per day: 15.72021863
mean anomaly at epoch: 232.9077°
orbit number at epoch: 96610

The dashed part of the orbit path shows where the satellite is in the earth's shadow,  

DLR